This is the latest recevied weather packets stored in our database for station/object KB7STN. If no packets are shown the sender has not sent any weather packets the latest 10 day(s).
| Time | Temp. | Humidity | Pressure | Rain* | Wind** | Luminosity | Snow |
|---|---|---|---|---|---|---|---|
| 1777942039 | 20° C | 32% | 995.8 hPa | 0 mm | - | - | - |
| 1777941739 | 19.44° C | 34% | 995.8 hPa | 0 mm | - | - | - |
| 1777941439 | 19.44° C | 34% | 995.9 hPa | 0 mm | - | - | - |
| 1777941139 | 18.89° C | 34% | 995.9 hPa | 0 mm | - | - | - |
| 1777940839 | 18.89° C | 32% | 995.9 hPa | 0 mm | - | - | - |
| 1777940539 | 18.89° C | 34% | 995.9 hPa | 0 mm | - | - | - |
| 1777940239 | 18.89° C | 34% | 996 hPa | 0 mm | - | - | - |
| 1777939939 | 18.89° C | 35% | 996 hPa | 0 mm | - | - | - |
| 1777939639 | 18.89° C | 34% | 996.1 hPa | 0 mm | - | - | - |
| 1777939339 | 18.89° C | 35% | 996 hPa | 0 mm | - | - | - |
| 1777939039 | 18.89° C | 35% | 996 hPa | 0 mm | - | - | - |
| 1777938739 | 18.33° C | 34% | 996 hPa | 0 mm | - | - | - |
| 1777938439 | 18.33° C | 34% | 996.1 hPa | 0 mm | - | - | - |
| 1777938139 | 18.33° C | 36% | 996 hPa | 0 mm | - | - | - |
| 1777937839 | 18.33° C | 35% | 996.1 hPa | 0 mm | - | - | - |
| 1777937539 | 18.33° C | 35% | 996.1 hPa | 0 mm | - | - | - |
| 1777937239 | 18.33° C | 36% | 996 hPa | 0 mm | - | - | - |
| 1777936939 | 18.33° C | 34% | 996.2 hPa | 0 mm | - | - | - |
| 1777936639 | 18.33° C | 33% | 996.1 hPa | 0 mm | - | - | - |
| 1777936339 | 18.33° C | 32% | 996.2 hPa | 0 mm | - | - | - |
| 1777936039 | 18.89° C | 32% | 996.2 hPa | 0 mm | - | - | - |
| 1777935739 | 18.89° C | 32% | 996.2 hPa | 0 mm | - | - | - |
| 1777935439 | 19.44° C | 31% | 996.3 hPa | 0 mm | - | - | - |
| 1777935139 | 20° C | 32% | 996.3 hPa | 0 mm | - | - | - |
| 1777934839 | 20° C | 31% | 996.2 hPa | 0 mm | - | - | - |
* Rain latest hour (hover to see other rain measurements)
** Current wind speed in m/s (hover to see current wind gust speed)